Weather Roundup
Issued by NWS

Home | Current Version | Previous Version | Graphics & Text | Print | Product List | Glossary Off
Versions: 1 2 3 4 5 6 7 8 9 10 11 12 13 14 15 16 17 18 19 20 21 22 23 24 25 26 27 28 29 30 31 32 33 34 35 36 37 38 39 40 41 42 43 44 45 46 47 48 49 50

000
NZUS93 KARX 210310
HRRWXR

CURRENT HOURLY OBSERVATIONS ACROSS
MUCH OF THE UPPER MISSISSIPPI VALLEY
NATIONAL WEATHER SERVICE LA CROSSE WI
1000 PM CDT FRI APR 20 2018


...SOUTHEAST MINNESOTA...


CITY           SKY/WX    TMP DP  RH WIND       PRES   REMARKS
ROCHESTER      FAIR      39  26  59 N3        30.43S
ROCHESTER/MAYO FAIR      42  25  50 CALM      30.44R
WINONA         FAIR      41  30  65 CALM      30.43S
AUSTIN         FAIR      37  25  60 CALM      30.43R
ALBERT LEA     FAIR      36  27  69 CALM      30.43S
DODGE CENTER   FAIR      37  25  60 CALM      30.43S
PRESTON        FAIR      38  22  51 CALM      30.43S
OWATONNA       FAIR      37  30  75 CALM      30.44R
FARIBAULT      NOT AVBL
$$

...ELSEWHERE IN MINNESOTA...


CITY           SKY/WX    TMP DP  RH WIND       PRES   REMARKS
MINNEAPOLIS    MOCLDY    46  24  42 SW3       30.44S
INTNL FALLS    FAIR      36  26  67 CALM      30.35R
DULUTH         FAIR      45  24  43 SW8       30.39R
RED WING       FAIR      37  25  60 CALM      30.44S
REDWOOD FALLS  CLOUDY    37  31  78 S6        30.44R WCI  32
MANKATO        FAIR      38  28  67 CALM      30.45R
WORTHINGTON    CLOUDY    35  30  82 E5        30.43R WCI  31
FAIRMONT       CLOUDY    37  28  70 CALM      30.44R
$$

...SOUTHWEST WISCONSIN...


CITY           SKY/WX    TMP DP  RH WIND       PRES   REMARKS
LA CROSSE      FAIR      43  31  62 CALM      30.43F
PRAIRIE DU CHI FAIR      43  32  65 CALM      30.42S
BOSCOBEL       FAIR      38  31  76 CALM      30.43S
LONE ROCK      FAIR      39  32  76 CALM      30.43S
PLATTEVILLE    FAIR      47  30  52 E5        30.42S
FORT MC COY    FAIR      33  21  62 CALM      30.45S
CAMP DOUGLAS   FAIR      33  24  69 CALM      30.43S HAZE
MAUSTON-NEW LI FAIR      34  24  66 CALM      30.43S
VIROQUA        FAIR      44  26  49 N3        30.43F
WIS DELLS      FAIR      37  19  49 CALM      30.43S
$$

...ELSEWHERE IN WISCONSIN...


CITY           SKY/WX    TMP DP  RH WIND       PRES   REMARKS
MILWAUKEE      FAIR      43  19  38 CALM      30.45S
MADISON        FAIR      36  28  73 CALM      30.44R
GREEN BAY      FAIR      37  24  59 CALM      30.44R
EAU CLAIRE     FAIR      41  22  46 SW3       30.43R
BLACK RVR FLS  FAIR      30  17  59 CALM      30.43S
MEDFORD        FAIR      32  22  65 CALM      30.41F
WAUSAU         FAIR      37  20  50 CALM      30.41S
WIS RAPIDS     FAIR      35  19  52 CALM      30.44S
MARSHFIELD     FAIR      39  18  42 CALM      30.41S
RICE LAKE      FAIR      35  22  58 CALM      30.45R
$$

...NORTHEAST IOWA...


CITY           SKY/WX    TMP DP  RH WIND       PRES   REMARKS
WATERLOO       FAIR      43  32  65 CALM      30.42R
DUBUQUE        FAIR      48  24  39 E7        30.41S
DECORAH        FAIR      43  25  49 CALM      30.42S
MASON CITY     CLOUDY    36  29  75 NE5       30.44R WCI  32
CHARLES CITY   CLOUDY    39  27  60 NE6       30.43R WCI  35
OELWEIN        CLOUDY    45  37  76 NE8       30.42R
$$

...ELSEWHERE IN IOWA...


CITY           SKY/WX    TMP DP  RH WIND       PRES   REMARKS
DES MOINES     CLOUDY    53  26  35 E5        30.37S
IOWA CITY      FAIR      46  26  45 CALM      30.42R
FORT DODGE     CLOUDY    42  35  76 NE9       30.42R
MARSHALLTOWN   CLOUDY    46  39  76 NE9       30.39R
CEDAR RAPIDS   FAIR      50  21  32 E5        30.39R
$$

...NORTHERN ILLINOIS...


CITY           SKY/WX    TMP DP  RH WIND       PRES   REMARKS
CHICAGO-OHARE  MOCLDY    47  12  24 E3        30.44S
CHICAGO-MIDWAY MOCLDY    47  14  26 E5        30.45R
MOLINE         FAIR      46  30  53 CALM      30.40R
ROCKFORD       CLOUDY    47  22  37 SE6       30.45R
PEORIA         FAIR      54  22  28 CALM      30.40S
$$

NOTE: "FAIR" INDICATES FEW OR NO CLOUDS BELOW 12,000 FEET WITH NO
SIGNIFICANT WEATHER AND/OR OBSTRUCTIONS TO VISIBILITY. WIND
SPEEDS ARE IN MILES-PER-HOUR.




USA.gov is the U.S. government's official web portal to all federal, state and local government web resources and services.